EW9034 Weather Reports


Display with metric or nautical units.
time (UTC)temp
F
wind
direction
speed
MPH
gust
MPH
rain 1hr
in
rain 24hr
in
rain mn
in
humidity
%
barometer
mb
20260506033002 37 13 2.0 4.0 0.00 0.00 0.00 49 1020.7
20260506031503 39 12 0.0 3.0 0.00 0.00 0.00 46 1020.5
20260506030001 41 12 2.0 4.0 0.00 0.00 0.00 44 1020.5
20260506024501 42 12 2.0 4.0 0.00 0.00 0.00 44 1020.5
20260506023112 43 12 3.0 5.0 0.00 0.00 0.00 43 1020.4
20260506021605 45 13 4.0 9.0 0.00 0.00 0.00 40 1020.4
20260506020100 47 13 6.0 9.0 0.00 0.00 0.00 37 1020.3
20260506014559 47 12 6.0 12.0 0.00 0.00 0.00 35 1020.3
20260506013104 48 5 4.0 14.0 0.00 0.00 0.00 34 1020.3
20260506011606 49 355 7.0 16.0 0.00 0.00 0.00 33 1020.2
20260506010058 50 5 5.0 15.0 0.00 0.00 0.00 32 1020.3
20260506004600 51 346 10.0 14.0 0.00 0.00 0.00 32 1020.3
20260506003056 49 360 10.0 19.0 0.00 0.00 0.00 34 1020.4
20260506001559 49 25 9.0 17.0 0.00 0.00 0.00 34 1020.4
20260505234555 48 5 11.0 16.0 0.00 0.00 0.00 33 1020.5
20260505233057 51 329 14.0 19.0 0.00 0.00 0.00 32 1020.5
20260505231553 51 5 9.0 19.0 0.00 0.00 0.00 33 1020.6
20260505230118 50 321 11.0 17.0 0.00 0.00 0.00 35 1020.6
20260505224552 48 321 12.0 17.0 0.00 0.00 0.00 34 1020.8
20260505223050 50 5 6.0 21.0 0.00 0.00 0.00 35 1020.8
20260505221556 49 17 11.0 22.0 0.00 0.00 0.00 33 1020.8
20260505220055 50 27 12.0 20.0 0.00 0.00 0.00 33 1020.9
20260505214549 48 5 10.0 18.0 0.00 0.00 0.00 36 1021.0
20260505213048 49 336 12.0 18.0 0.00 0.00 0.00 35 1021.0
20260505211558 50 28 11.0 21.0 0.00 0.00 0.00 37 1021.1
20260505210048 51 33 13.0 18.0 0.00 0.00 0.00 34 1021.2
20260505204544 50 9 10.0 19.0 0.00 0.00 0.00 37 1021.3
20260505203043 48 15 11.0 17.0 0.00 0.00 0.00 36 1021.4
20260505201545 48 44 8.0 19.0 0.00 0.00 0.00 36 1021.4
20260505200043 49 311 10.0 20.0 0.00 0.00 0.00 36 1021.5
20260505194544 48 344 10.0 21.0 0.00 0.00 0.00 39 1021.5
20260505193048 49 355 15.0 21.0 0.00 0.00 0.00 34 1021.6
20260505191542 48 348 13.0 22.0 0.00 0.00 0.00 37 1021.6
20260505190043 48 20 8.0 20.0 0.00 0.00 0.00 41 1021.6
20260505184535 47 329 14.0 21.0 0.00 0.00 0.00 38 1021.7
20260505183036 46 316 7.0 18.0 0.00 0.00 0.00 45 1021.6
20260505181530 44 340 9.0 18.0 0.00 0.00 0.00 46 1021.7
20260505180028 46 355 10.0 20.0 0.00 0.00 0.00 45 1021.9
20260505174528 46 329 13.0 21.0 0.00 0.00 0.00 45 1021.9
20260505173026 45 328 10.0 16.0 0.00 0.00 0.00 47 1021.7
20260505171523 43 349 11.0 18.0 0.00 0.00 0.00 50 1021.7
20260505170029 43 345 7.0 22.0 0.00 0.00 0.00 50 1021.8
20260505164520 43 346 10.0 14.0 0.00 0.00 0.00 53 1021.9
20260505163018 42 24 11.0 18.0 0.00 0.00 0.00 55 1021.9
20260505161533 41 28 10.0 15.0 0.00 0.00 0.00 57 1021.9
20260505153013 41 17 8.0 13.0 0.00 0.00 0.00 57 1021.9
20260505151508 40 43 9.0 14.0 0.00 0.00 0.00 58 1021.8
20260505124535 29 67 0.0 0.0 0.00 0.00 0.00 80 1021.0
20260505123034 28 67 0.0 5.0 0.00 0.00 0.00 80 1021.0
20260505121534 29 69 0.0 0.0 0.00 0.00 0.00 75 1020.9
20260505120028 30 69 0.0 0.0 0.00 0.00 0.00 75 1020.7
20260505114527 31 69 0.0 0.0 0.00 0.00 0.00 76 1020.7
20260505113024 31 69 0.0 0.0 0.00 0.00 0.00 77 1020.8
20260505111522 30 69 0.0 0.0 0.00 0.00 0.00 76 1020.7
20260505101516 30 69 0.0 2.0 0.00 0.00 0.00 75 1020.4
20260505100019 30 69 0.0 2.0 0.00 0.00 0.00 75 1020.4
20260505094515 29 69 1.0 3.0 0.00 0.00 0.00 76 1020.1
20260505093014 29 69 1.0 4.0 0.00 0.00 0.00 76 1020.2
20260505091513 28 69 0.0 1.0 0.00 0.00 0.00 78 1020.2
20260505090026 28 69 0.0 1.0 0.00 0.00 0.00 76 1019.9
20260505084510 29 69 0.0 2.0 0.00 0.00 0.00 74 1019.9
20260505083008 29 69 0.0 2.0 0.00 0.00 0.00 70 1019.7
20260505081507 30 69 1.0 2.0 0.00 0.00 0.00 72 1019.6
20260505080016 30 69 0.0 3.0 0.00 0.00 0.00 73 1019.5
20260505074504 29 69 0.0 2.0 0.00 0.00 0.00 74 1019.4
20260505073002 28 69 2.0 4.0 0.00 0.00 0.00 77 1019.2
20260505071600 27 69 2.0 4.0 0.00 0.00 0.00 78 1019.3
20260505071500 27 69 2.0 4.0 0.00 0.00 0.00 79 1019.3
20260505070059 25 69 2.0 6.0 0.00 0.00 0.00 76 1019.2
20260505064557 25 65 4.0 6.0 0.00 0.00 0.00 74 1019.1
20260505063053 26 54 4.0 5.0 0.00 0.00 0.00 72 1018.9
20260505061550 28 50 3.0 5.0 0.00 0.00 0.00 68 1018.6
20260505060045 29 44 0.0 0.0 0.00 0.00 0.00 69 1018.4
20260505054546 30 44 0.0 0.0 0.00 0.00 0.00 67 1018.4
20260505053036 32 44 0.0 0.0 0.00 0.00 0.00 67 1018.2
20260505051533 33 44 0.0 0.0 0.00 0.00 0.00 72 1018.0
20260505041521 35 44 0.0 0.0 0.00 0.00 0.00 67 1017.0
20260505040022 36 44 0.0 0.0 0.00 0.00 0.00 59 1016.8
20260505034515 38 44 1.0 3.0 0.00 0.00 0.00 58 1016.7